Hourly Data Report for November 11, 2004

SHERBROOKE A
QUEBEC

45°26'00.000" N
71°41'00.000" W
241.40 m
7028124
71610
YSC

Download Data

Hourly Data (November 2004)
Hourly Data Report for November 11, 2004
TIME
LST
Temp Definition
°C
Dew Point Definition
°C
Rel Hum Definition
%
Precip. Amount Definition
mm

Wind Dir Definition
10's deg

Wind Spd Definition
km/h
Visibility Definition
km
Stn Press Definition
kPa
Hmdx Definition


Wind Chill Definition


Weather Definition


00:00 1.3 -7.8 51   18 9 15.0 99.12      
01:00 1.2 -7.6 52   17 7 15.0 99.04      
02:00 1.6 -7.0 53   18 9 15.0 98.99      
03:00 2.0 -6.3 54   17 7 15.0 98.92      
04:00 3.1 -5.3 54   18 6 15.0 98.87      
05:00 4.2 -4.3 54   21 9 15.0 98.86      
06:00 4.5 -3.5 56   19 9 15.0 98.81      
07:00 4.4 -3.0 59   20 7 15.0 98.81      
08:00 5.8 -2.2 56   20 11 24.1 98.82     Cloudy
09:00 6.2 -1.9 56   22 13 24.1 98.80     Cloudy
10:00 7.0 -1.2 56   22 11 24.1 98.79     Cloudy
11:00 7.5 -0.7 56   21 17 24.1 98.76     Cloudy
12:00 7.2 -0.5 58   23 11 24.1 98.79     Rain
13:00 6.6 -0.5 60   29 22 24.1 98.91     Cloudy
14:00 0.6 -1.0 89   32 15 4.8 99.15     Drizzle,Snow,Fog
15:00 0.1 -1.5 89   30 11 4.8 99.37     Snow,Fog
16:00 -0.9 -2.2 91   31 15 2.4 99.53   -6 Snow
17:00 -1.4 -3.8 84   32 11 19.3 99.67   -5 Cloudy
18:00 -2.2 -4.5 84   29 7 15.0 99.77   -5  
19:00 -2.8 -4.5 88   30 6 15.0 99.84   -5  
20:00 -3.0 -6.0 80   32 6 15.0 99.90   -5  
21:00 -3.9 -8.0 73   32 4 15.0 99.91   -6  
22:00 -5.1 -8.8 75     0 15.0 99.95      
23:00 -5.2 -9.7 71   3 6 15.0 99.99   -8  

Notes on Data Quality.

Legend

  • E = Estimated
  • M = Missing
  • NA = Not Available*
  • [empty] = Indicates an unobserved value
Date modified: